Time,TemperatureF,DewpointF,PressureIn,WindDirection,WindDirectionDegrees,WindSpeedMPH,WindSpeedGustMPH,Humidity,HourlyPrecipIn,Conditions,Clouds,dailyrainin,SoftwareType,DateUTC
2013-01-14 00:01:00,62.6,57.7,30.31,SSW,202,1.1,1.1,84,0.00,CLR,,0.00,WeatherDisplay:10.37,2013-01-14 05:01:00,
2013-01-14 00:03:00,62.6,58.0,30.31,WSW,248,1.4,1.4,85,0.00,CLR,,0.00,WeatherDisplay:10.37,2013-01-14 05:03:00,
2013-01-14 00:08:00,62.6,57.7,30.31,South,180,3.5,3.5,84,0.00,CLR,,0.00,WeatherDisplay:10.37,2013-01-14 05:08:00,
2013-01-14 00:13:00,62.6,57.7,30.31,SSW,202,1.6,1.6,84,0.00,CLR,,0.00,WeatherDisplay:10.37,2013-01-14 05:13:00,
2013-01-14 00:18:00,62.6,57.7,30.31,SE,135,2.3,2.3,84,0.00,CLR,,0.00,WeatherDisplay:10.37,2013-01-14 05:18:00,
2013-01-14 00:23:00,62.6,58.0,30.31,SW,225,2.3,2.3,85,0.00,CLR,,0.00,WeatherDisplay:10.37,2013-01-14 05:23:00,
2013-01-14 00:28:00,62.6,58.0,30.31,SSW,202,1.8,1.8,85,0.00,CLR,,0.00,WeatherDisplay:10.37,2013-01-14 05:28:00,
2013-01-14 00:33:00,62.4,57.8,30.31,SSW,202,2.2,2.2,85,0.00,CLR,,0.00,WeatherDisplay:10.37,2013-01-14 05:33:00,
2013-01-14 00:38:00,62.4,57.8,30.31,South,180,2.3,2.3,85,0.00,CLR,,0.00,WeatherDisplay:10.37,2013-01-14 05:38:00,
2013-01-14 00:43:00,62.4,57.8,30.31,SSE,158,2.3,2.3,85,0.00,CLR,,0.00,WeatherDisplay:10.37,2013-01-14 05:43:00,
2013-01-14 00:48:00,62.2,57.7,30.31,SW,225,2.3,2.3,85,0.00,CLR,,0.00,WeatherDisplay:10.37,2013-01-14 05:48:00,
2013-01-14 00:53:00,62.2,57.7,30.31,SSW,202,3.5,3.5,85,0.00,CLR,,0.00,WeatherDisplay:10.37,2013-01-14 05:53:00,
2013-01-14 00:58:00,62.2,58.0,30.31,South,180,4.6,4.7,86,0.00,CLR,,0.00,WeatherDisplay:10.37,2013-01-14 05:58:00,
2013-01-14 01:03:00,62.2,57.7,30.31,WSW,248,2.3,2.3,85,0.00,CLR,,0.00,WeatherDisplay:10.37,2013-01-14 06:03:00,
2013-01-14 01:08:00,62.2,57.7,30.31,South,180,1.4,1.4,85,0.00,CLR,,0.00,WeatherDisplay:10.37,2013-01-14 06:08:00,
2013-01-14 01:13:00,62.2,57.7,30.31,SW,225,2.3,2.3,85,0.00,CLR,,0.00,WeatherDisplay:10.37,2013-01-14 06:13:00,
2013-01-14 01:18:00,62.2,57.7,30.31,SW,225,2.9,2.9,85,0.00,CLR,,0.00,WeatherDisplay:10.37,2013-01-14 06:18:00,
2013-01-14 01:23:00,62.2,57.7,30.31,SSW,202,2.3,2.3,85,0.00,CLR,,0.00,WeatherDisplay:10.37,2013-01-14 06:23:00,
2013-01-14 01:28:00,62.2,57.7,30.32,SSW,202,2.3,2.3,85,0.00,CLR,,0.00,WeatherDisplay:10.37,2013-01-14 06:28:00,
2013-01-14 01:33:00,62.2,58.0,30.32,SW,225,2.3,2.3,86,0.00,CLR,,0.00,WeatherDisplay:10.37,2013-01-14 06:33:00,
2013-01-14 01:38:00,62.2,58.0,30.32,SSW,202,2.4,2.4,86,0.00,CLR,,0.00,WeatherDisplay:10.37,2013-01-14 06:38:00,
2013-01-14 01:43:00,62.2,58.0,30.32,SSW,202,1.1,1.1,86,0.00,CLR,,0.00,WeatherDisplay:10.37,2013-01-14 06:43:00,
2013-01-14 01:48:00,62.2,58.0,30.32,SE,135,1.1,1.1,86,0.00,CLR,,0.00,WeatherDisplay:10.37,2013-01-14 06:48:00,
2013-01-14 01:53:00,62.2,58.0,30.32,SSW,202,2.3,2.3,86,0.00,CLR,,0.00,WeatherDisplay:10.37,2013-01-14 06:53:00,
2013-01-14 01:58:00,62.2,58.0,30.32,South,180,2.3,2.3,86,0.00,CLR,,0.00,WeatherDisplay:10.37,2013-01-14 06:58:00,
2013-01-14 02:03:00,62.2,58.0,30.32,South,180,2.3,2.3,86,0.00,CLR,,0.00,WeatherDisplay:10.37,2013-01-14 07:03:00,
2013-01-14 02:08:00,62.2,58.0,30.33,SE,135,2.3,2.3,86,0.00,CLR,,0.00,WeatherDisplay:10.37,2013-01-14 07:08:00,
2013-01-14 02:13:00,62.2,58.0,30.32,SSE,158,2.3,2.3,86,0.00,CLR,,0.00,WeatherDisplay:10.37,2013-01-14 07:13:00,
2013-01-14 02:18:00,62.2,58.0,30.32,SSW,202,2.3,2.3,86,0.00,CLR,,0.00,WeatherDisplay:10.37,2013-01-14 07:18:00,
2013-01-14 02:23:00,62.2,58.0,30.33,SSW,202,3.1,3.1,86,0.00,CLR,,0.00,WeatherDisplay:10.37,2013-01-14 07:23:00,
2013-01-14 02:29:00,62.2,58.0,30.33,SSE,158,2.3,2.3,86,0.00,CLR,,0.00,WeatherDisplay:10.37,2013-01-14 07:29:00,
2013-01-14 02:34:00,62.2,58.0,30.33,SSW,202,2.3,2.3,86,0.00,CLR,,0.00,WeatherDisplay:10.37,2013-01-14 07:34:00,
2013-01-14 02:39:00,62.2,58.3,30.32,SSE,158,2.3,2.3,87,0.00,CLR,,0.00,WeatherDisplay:10.37,2013-01-14 07:39:00,
2013-01-14 02:44:00,62.2,58.3,30.33,WSW,248,2.3,2.3,87,0.00,CLR,,0.00,WeatherDisplay:10.37,2013-01-14 07:44:00,
2013-01-14 02:49:00,62.1,58.1,30.33,SW,225,3.3,3.3,87,0.00,CLR,,0.00,WeatherDisplay:10.37,2013-01-14 07:49:00,
2013-01-14 02:54:00,62.1,58.1,30.32,SW,225,2.3,2.3,87,0.00,CLR,,0.00,WeatherDisplay:10.37,2013-01-14 07:54:00,
2013-01-14 02:59:00,62.1,58.1,30.32,WSW,248,2.3,2.3,87,0.00,CLR,,0.00,WeatherDisplay:10.37,2013-01-14 07:59:00,
2013-01-14 03:04:00,62.1,58.1,30.32,SSE,158,2.3,2.3,87,0.00,CLR,,0.00,WeatherDisplay:10.37,2013-01-14 08:04:00,
2013-01-14 03:09:00,62.1,58.1,30.31,SW,225,1.1,1.1,87,0.00,CLR,,0.00,WeatherDisplay:10.37,2013-01-14 08:09:00,
2013-01-14 03:14:00,62.1,58.1,30.31,South,180,1.1,1.1,87,0.00,CLR,,0.00,WeatherDisplay:10.37,2013-01-14 08:14:00,
2013-01-14 03:19:00,62.1,58.1,30.31,SSE,158,1.1,1.1,87,0.00,CLR,,0.00,WeatherDisplay:10.37,2013-01-14 08:19:00,
2013-01-14 03:24:00,62.1,58.1,30.31,South,180,2.4,2.4,87,0.00,CLR,,0.00,WeatherDisplay:10.37,2013-01-14 08:24:00,
2013-01-14 03:29:00,62.1,58.1,30.31,SSW,202,2.3,2.3,87,0.00,CLR,,0.00,WeatherDisplay:10.37,2013-01-14 08:29:00,
2013-01-14 03:34:00,62.1,58.1,30.31,SW,225,2.3,2.3,87,0.00,CLR,,0.00,WeatherDisplay:10.37,2013-01-14 08:34:00,
2013-01-14 03:39:00,62.1,58.1,30.30,South,180,2.3,2.3,87,0.00,CLR,,0.00,WeatherDisplay:10.37,2013-01-14 08:39:00,
2013-01-14 03:44:00,62.1,58.1,30.30,SSE,158,2.3,2.3,87,0.00,CLR,,0.00,WeatherDisplay:10.37,2013-01-14 08:44:00,
2013-01-14 03:49:00,61.9,58.0,30.31,SW,225,2.3,2.3,87,0.00,CLR,,0.00,WeatherDisplay:10.37,2013-01-14 08:49:00,
2013-01-14 03:54:00,61.9,58.0,30.31,SW,225,2.3,2.3,87,0.00,CLR,,0.00,WeatherDisplay:10.37,2013-01-14 08:54:00,
2013-01-14 03:59:00,61.9,58.0,30.30,SW,225,2.3,2.3,87,0.00,CLR,,0.00,WeatherDisplay:10.37,2013-01-14 08:59:00,
2013-01-14 04:04:00,61.9,58.0,30.30,SW,225,2.3,2.3,87,0.00,CLR,,0.00,WeatherDisplay:10.37,2013-01-14 09:04:00,
2013-01-14 04:09:00,61.9,58.0,30.29,SSW,202,1.1,1.1,87,0.00,CLR,,0.00,WeatherDisplay:10.37,2013-01-14 09:09:00,
2013-01-14 04:14:00,61.9,58.0,30.29,South,180,2.3,2.3,87,0.00,CLR,,0.00,WeatherDisplay:10.37,2013-01-14 09:14:00,
2013-01-14 04:19:00,61.9,58.0,30.29,South,180,1.6,1.6,87,0.00,CLR,,0.00,WeatherDisplay:10.37,2013-01-14 09:19:00,
2013-01-14 04:24:00,61.9,58.0,30.29,SSW,202,2.3,2.3,87,0.00,CLR,,0.00,WeatherDisplay:10.37,2013-01-14 09:24:00,
2013-01-14 04:29:00,61.7,57.8,30.28,SSW,202,2.3,2.3,87,0.00,CLR,,0.00,WeatherDisplay:10.37,2013-01-14 09:29:00,
2013-01-14 04:34:00,61.7,57.8,30.28,SW,225,2.4,2.4,87,0.00,CLR,,0.00,WeatherDisplay:10.37,2013-01-14 09:34:00,
2013-01-14 04:39:00,61.7,57.8,30.28,SSW,202,3.5,3.8,87,0.00,CLR,,0.00,WeatherDisplay:10.37,2013-01-14 09:39:00,
2013-01-14 04:44:00,61.7,57.8,30.28,WSW,248,1.4,1.4,87,0.00,CLR,,0.00,WeatherDisplay:10.37,2013-01-14 09:44:00,
2013-01-14 04:49:00,61.7,57.8,30.28,SSE,158,2.3,2.3,87,0.00,CLR,,0.00,WeatherDisplay:10.37,2013-01-14 09:49:00,
2013-01-14 04:54:00,61.5,57.6,30.27,SSW,202,2.4,2.4,87,0.00,CLR,,0.00,WeatherDisplay:10.37,2013-01-14 09:54:00,
2013-01-14 04:59:00,61.5,57.6,30.27,SW,225,2.3,2.3,87,0.00,CLR,,0.00,WeatherDisplay:10.37,2013-01-14 09:59:00,
2013-01-14 05:04:00,61.5,57.6,30.28,SW,225,1.6,1.6,87,0.00,CLR,,0.00,WeatherDisplay:10.37,2013-01-14 10:04:00,
2013-01-14 05:09:00,61.5,57.6,30.28,SW,225,1.1,2.0,87,0.00,CLR,,0.00,WeatherDisplay:10.37,2013-01-14 10:09:00,
2013-01-14 05:14:00,61.5,57.6,30.28,SSE,158,2.3,2.3,87,0.00,CLR,,0.00,WeatherDisplay:10.37,2013-01-14 10:14:00,
2013-01-14 05:19:00,61.5,57.6,30.28,SW,225,1.1,1.1,87,0.00,CLR,,0.00,WeatherDisplay:10.37,2013-01-14 10:19:00,
2013-01-14 05:24:00,61.5,57.6,30.28,WSW,248,1.1,1.1,87,0.00,CLR,,0.00,WeatherDisplay:10.37,2013-01-14 10:24:00,
2013-01-14 05:29:00,61.5,57.6,30.29,WSW,248,1.1,1.1,87,0.00,CLR,,0.00,WeatherDisplay:10.37,2013-01-14 10:29:00,
2013-01-14 05:34:00,61.5,57.6,30.29,SW,225,1.6,1.6,87,0.00,CLR,,0.00,WeatherDisplay:10.37,2013-01-14 10:34:00,
2013-01-14 05:39:00,61.3,57.4,30.29,SW,225,1.1,1.1,87,0.00,CLR,,0.00,WeatherDisplay:10.37,2013-01-14 10:39:00,
2013-01-14 05:44:00,61.2,57.3,30.29,SW,225,1.1,1.1,87,0.00,CLR,,0.00,WeatherDisplay:10.37,2013-01-14 10:44:00,
2013-01-14 05:49:00,61.2,57.3,30.29,WSW,248,0.5,0.5,87,0.00,CLR,,0.00,WeatherDisplay:10.37,2013-01-14 10:49:00,
2013-01-14 05:54:00,61.2,57.3,30.29,WSW,248,0.0,0.0,87,0.00,CLR,,0.00,WeatherDisplay:10.37,2013-01-14 10:54:00,
2013-01-14 05:59:00,61.0,57.1,30.29,SW,225,0.0,0.0,87,0.00,CLR,,0.00,WeatherDisplay:10.37,2013-01-14 10:59:00,
2013-01-14 06:04:00,60.8,56.9,30.29,SW,225,0.0,0.0,87,0.00,CLR,,0.00,WeatherDisplay:10.37,2013-01-14 11:04:00,
2013-01-14 06:09:00,60.8,56.9,30.30,SW,225,0.0,0.0,87,0.00,CLR,,0.00,WeatherDisplay:10.37,2013-01-14 11:09:00,
2013-01-14 06:14:00,60.4,56.6,30.30,SW,225,0.0,0.0,87,0.00,CLR,,0.00,WeatherDisplay:10.37,2013-01-14 11:14:00,
2013-01-14 06:19:00,60.4,56.6,30.30,SW,225,0.0,0.0,87,0.00,CLR,,0.00,WeatherDisplay:10.37,2013-01-14 11:19:00,
2013-01-14 06:24:00,60.1,56.2,30.30,SW,225,0.0,0.0,87,0.00,CLR,,0.00,WeatherDisplay:10.37,2013-01-14 11:24:00,
2013-01-14 06:29:00,60.1,56.2,30.31,SW,225,0.0,0.0,87,0.00,CLR,,0.00,WeatherDisplay:10.37,2013-01-14 11:29:00,
2013-01-14 06:34:00,59.7,55.5,30.31,SSW,202,0.0,0.0,86,0.00,CLR,,0.00,WeatherDisplay:10.37,2013-01-14 11:34:00,
2013-01-14 06:39:00,59.5,55.3,30.31,SSW,202,0.0,0.0,86,0.00,CLR,,0.00,WeatherDisplay:10.37,2013-01-14 11:39:00,
2013-01-14 06:44:00,59.4,55.2,30.31,SSW,202,0.0,0.0,86,0.00,CLR,,0.00,WeatherDisplay:10.37,2013-01-14 11:44:00,
2013-01-14 06:49:00,59.2,55.0,30.31,SSW,202,0.0,0.0,86,0.00,CLR,,0.00,WeatherDisplay:10.37,2013-01-14 11:49:00,
2013-01-14 06:54:00,58.8,54.6,30.31,ESE,112,0.0,0.0,86,0.00,,,0.00,WeatherDisplay:10.37,2013-01-14 11:54:00,
2013-01-14 06:59:00,58.6,54.5,30.32,SE,135,0.0,0.0,86,0.00,,,0.00,WeatherDisplay:10.37,2013-01-14 11:59:00,
2013-01-14 07:04:00,58.6,54.5,30.32,SE,135,0.0,0.0,86,0.00,,,0.00,WeatherDisplay:10.37,2013-01-14 12:04:00,
2013-01-14 07:09:00,58.3,54.1,30.31,ESE,112,0.0,0.0,86,0.00,,,0.00,WeatherDisplay:10.37,2013-01-14 12:09:00,
2013-01-14 07:14:00,58.3,54.1,30.32,SE,135,0.0,0.0,86,0.00,,,0.00,WeatherDisplay:10.37,2013-01-14 12:14:00,
2013-01-14 07:19:00,58.1,53.9,30.32,SE,135,0.2,0.2,86,0.00,,,0.00,WeatherDisplay:10.37,2013-01-14 12:19:00,
2013-01-14 07:24:00,57.9,53.8,30.32,SE,135,0.0,0.0,86,0.00,,,0.00,WeatherDisplay:10.37,2013-01-14 12:24:00,
2013-01-14 07:29:00,57.7,53.6,30.33,SE,135,0.0,0.0,86,0.00,,,0.00,WeatherDisplay:10.37,2013-01-14 12:29:00,
2013-01-14 07:34:00,57.6,53.4,30.33,SE,135,0.0,0.0,86,0.00,,,0.00,WeatherDisplay:10.37,2013-01-14 12:34:00,
2013-01-14 07:39:00,57.6,53.4,30.33,SE,135,0.0,0.0,86,0.00,,,0.00,WeatherDisplay:10.37,2013-01-14 12:39:00,
2013-01-14 07:44:00,57.6,53.7,30.33,SSE,158,0.0,0.0,87,0.00,,,0.00,WeatherDisplay:10.37,2013-01-14 12:44:00,
2013-01-14 07:49:00,57.4,53.5,30.33,SSE,158,0.0,0.0,87,0.00,,,0.00,WeatherDisplay:10.37,2013-01-14 12:49:00,
2013-01-14 07:54:00,57.4,53.5,30.33,SSE,158,0.0,0.0,87,0.00,,,0.00,WeatherDisplay:10.37,2013-01-14 12:54:00,
2013-01-14 07:59:00,57.6,53.7,30.33,SSE,158,0.0,0.0,87,0.00,,,0.00,WeatherDisplay:10.37,2013-01-14 12:59:00,
2013-01-14 08:04:00,57.7,53.9,30.34,SSE,158,0.0,0.0,87,0.00,FEW,,0.00,WeatherDisplay:10.37,2013-01-14 13:04:00,
2013-01-14 08:09:00,57.9,54.1,30.34,SSW,202,0.5,0.5,87,0.00,FEW,,0.00,WeatherDisplay:10.37,2013-01-14 13:09:00,
2013-01-14 08:14:00,58.3,54.7,30.34,South,180,1.1,1.1,88,0.00,FEW,,0.00,WeatherDisplay:10.37,2013-01-14 13:14:00,
2013-01-14 08:19:00,58.6,55.4,30.34,SW,225,1.1,1.1,89,0.00,FEW,,0.00,WeatherDisplay:10.37,2013-01-14 13:19:00,
2013-01-14 08:24:00,59.0,55.8,30.34,SSW,202,1.1,1.1,89,0.00,FEW,,0.00,WeatherDisplay:10.37,2013-01-14 13:24:00,
2013-01-14 08:29:00,59.4,56.4,30.34,SSW,202,1.8,1.8,90,0.00,FEW,,0.00,WeatherDisplay:10.37,2013-01-14 13:29:00,
2013-01-14 08:34:00,59.9,57.0,30.34,SSW,202,1.1,1.1,90,0.00,FEW,,0.00,WeatherDisplay:10.37,2013-01-14 13:34:00,
2013-01-14 08:40:00,60.3,57.3,30.34,SSW,202,2.9,2.9,90,0.00,FEW,,0.00,WeatherDisplay:10.37,2013-01-14 13:40:00,
2013-01-14 08:45:00,60.8,57.8,30.35,WSW,248,1.6,1.6,90,0.00,FEW,,0.00,WeatherDisplay:10.37,2013-01-14 13:45:00,
2013-01-14 08:50:00,61.2,58.2,30.35,SW,225,2.3,2.3,90,0.00,FEW,,0.00,WeatherDisplay:10.37,2013-01-14 13:50:00,
2013-01-14 08:55:00,61.5,58.9,30.36,SSW,202,2.0,2.0,91,0.00,FEW,,0.00,WeatherDisplay:10.37,2013-01-14 13:55:00,
2013-01-14 09:00:00,62.1,59.4,30.35,South,180,1.1,1.8,91,0.00,FEW,,0.00,WeatherDisplay:10.37,2013-01-14 14:00:00,
2013-01-14 09:05:00,62.4,59.8,30.35,SSW,202,2.3,2.3,91,0.00,CLR,,0.00,WeatherDisplay:10.37,2013-01-14 14:05:00,
2013-01-14 09:10:00,63.0,60.3,30.36,SW,225,3.5,3.5,91,0.00,CLR,,0.00,WeatherDisplay:10.37,2013-01-14 14:10:00,
2013-01-14 09:15:00,63.5,60.8,30.36,SW,225,2.3,2.3,91,0.00,CLR,,0.00,WeatherDisplay:10.37,2013-01-14 14:15:00,
2013-01-14 09:20:00,63.9,60.9,30.36,WSW,248,4.6,4.6,90,0.00,CLR,,0.00,WeatherDisplay:10.37,2013-01-14 14:20:00,
2013-01-14 09:25:00,64.6,61.6,30.35,South,180,3.5,3.5,90,0.00,CLR,,0.00,WeatherDisplay:10.37,2013-01-14 14:25:00,
2013-01-14 09:30:00,64.9,61.9,30.35,SW,225,4.6,4.6,90,0.00,CLR,,0.00,WeatherDisplay:10.37,2013-01-14 14:30:00,
2013-01-14 09:35:00,65.3,62.0,30.35,SSW,202,2.6,2.6,89,0.00,CLR,,0.00,WeatherDisplay:10.37,2013-01-14 14:35:00,
2013-01-14 09:40:00,65.8,62.8,30.35,SSE,158,4.6,4.6,90,0.00,CLR,,0.00,WeatherDisplay:10.37,2013-01-14 14:40:00,
2013-01-14 09:45:00,66.2,63.2,30.35,SW,215,3.0,5.0,90,0.00,CLR,CLR,0.00,WeatherDisplay:10.37,2013-01-14 14:45:00,
2013-01-14 09:50:00,66.4,63.0,30.35,SW,219,3.0,4.0,89,0.00,CLR,CLR,0.00,WeatherDisplay:10.37,2013-01-14 14:50:00,
2013-01-14 09:55:00,66.6,62.9,30.35,SW,225,4.6,4.6,88,0.00,CLR,,0.00,WeatherDisplay:10.37,2013-01-14 14:55:00,
2013-01-14 10:00:00,66.9,63.2,30.35,South,180,3.5,3.6,88,0.00,CLR,,0.00,WeatherDisplay:10.37,2013-01-14 15:00:00,
2013-01-14 10:05:00,67.6,64.0,30.35,South,180,3.5,3.5,88,0.00,CLR,,0.00,WeatherDisplay:10.37,2013-01-14 15:05:00,
2013-01-14 10:10:00,68.2,64.5,30.35,SW,225,5.6,5.6,88,0.00,CLR,,0.00,WeatherDisplay:10.37,2013-01-14 15:10:00,
2013-01-14 10:15:00,68.8,64.8,30.35,SW,220,5.0,7.0,87,0.00,CLR,CLR,0.00,WeatherDisplay:10.37,2013-01-14 15:15:00,
2013-01-14 10:20:00,69.4,65.4,30.35,SE,135,3.5,3.5,87,0.00,CLR,,0.00,WeatherDisplay:10.37,2013-01-14 15:20:00,
2013-01-14 10:25:00,69.8,65.4,30.35,SSW,202,5.8,5.8,86,0.00,CLR,,0.00,WeatherDisplay:10.37,2013-01-14 15:25:00,
2013-01-14 10:30:00,70.3,65.5,30.35,SSW,207,3.0,6.0,85,0.00,CLR,CLR,0.00,WeatherDisplay:10.37,2013-01-14 15:30:00,
2013-01-14 10:35:00,70.9,65.8,30.35,SW,225,6.9,6.9,84,0.00,CLR,,0.00,WeatherDisplay:10.37,2013-01-14 15:35:00,
2013-01-14 10:40:00,71.4,66.3,30.34,SW,225,4.6,4.6,84,0.00,CLR,,0.00,WeatherDisplay:10.37,2013-01-14 15:40:00,
2013-01-14 10:45:00,72.0,66.5,30.35,SSW,202,2.4,2.4,83,0.00,CLR,,0.00,WeatherDisplay:10.37,2013-01-14 15:45:00,
2013-01-14 10:50:00,72.3,66.5,30.35,SW,215,7.0,8.0,82,0.00,CLR,CLR,0.00,WeatherDisplay:10.37,2013-01-14 15:50:00,
2013-01-14 10:55:00,72.3,66.2,30.35,WSW,248,3.5,3.5,81,0.00,CLR,,0.00,WeatherDisplay:10.37,2013-01-14 15:55:00,
2013-01-14 11:00:00,72.3,65.8,30.35,WSW,248,4.6,4.6,80,0.00,CLR,,0.00,WeatherDisplay:10.37,2013-01-14 16:00:00,
2013-01-14 11:05:00,72.3,65.8,30.35,SSW,202,9.2,9.2,80,0.00,CLR,,0.00,WeatherDisplay:10.37,2013-01-14 16:05:00,
2013-01-14 11:10:00,72.3,65.8,30.34,SW,225,4.6,4.6,80,0.00,CLR,,0.00,WeatherDisplay:10.37,2013-01-14 16:10:00,
2013-01-14 11:15:00,72.3,65.8,30.33,WSW,248,4.7,4.7,80,0.00,CLR,,0.00,WeatherDisplay:10.37,2013-01-14 16:15:00,
2013-01-14 11:20:00,72.7,66.2,30.33,SSW,202,5.8,5.8,80,0.00,CLR,,0.00,WeatherDisplay:10.37,2013-01-14 16:20:00,
2013-01-14 11:25:00,73.0,66.1,30.32,SSE,158,6.9,6.9,79,0.00,CLR,,0.00,WeatherDisplay:10.37,2013-01-14 16:25:00,
2013-01-14 11:30:00,73.4,66.5,30.32,SW,225,6.7,6.7,79,0.00,CLR,,0.00,WeatherDisplay:10.37,2013-01-14 16:30:00,
2013-01-14 11:35:00,73.8,66.5,30.32,SW,225,6.2,6.2,78,0.00,CLR,,0.00,WeatherDisplay:10.37,2013-01-14 16:35:00,
2013-01-14 11:40:00,73.9,66.6,30.31,West,270,4.7,4.7,78,0.00,CLR,,0.00,WeatherDisplay:10.37,2013-01-14 16:40:00,
2013-01-14 11:45:00,74.3,66.6,30.31,South,180,5.8,5.8,77,0.00,CLR,,0.00,WeatherDisplay:10.37,2013-01-14 16:45:00,
2013-01-14 11:50:00,74.5,66.4,30.31,SW,225,5.8,5.8,76,0.00,CLR,,0.00,WeatherDisplay:10.37,2013-01-14 16:50:00,
2013-01-14 11:55:00,74.5,66.0,30.31,WSW,248,5.8,5.8,75,0.00,CLR,,0.00,WeatherDisplay:10.37,2013-01-14 16:55:00,
2013-01-14 12:00:00,74.7,66.2,30.31,SSW,202,6.2,6.2,75,0.00,CLR,,0.00,WeatherDisplay:10.37,2013-01-14 17:00:00,
2013-01-14 12:05:00,74.8,66.4,30.31,SW,225,5.8,5.8,75,0.00,CLR,,0.00,WeatherDisplay:10.37,2013-01-14 17:05:00,
2013-01-14 12:10:00,75.0,66.2,30.31,SSW,202,5.9,5.9,74,0.00,CLR,,0.00,WeatherDisplay:10.37,2013-01-14 17:10:00,
2013-01-14 12:15:00,75.2,66.3,30.30,SW,225,4.6,4.6,74,0.00,CLR,,0.00,WeatherDisplay:10.37,2013-01-14 17:15:00,
2013-01-14 12:20:00,75.7,66.5,30.30,WSW,248,5.8,5.8,73,0.00,CLR,,0.00,WeatherDisplay:10.37,2013-01-14 17:20:00,
2013-01-14 12:25:00,76.1,66.4,30.30,West,270,5.8,5.8,72,0.00,SCT,,0.00,WeatherDisplay:10.37,2013-01-14 17:25:00,
2013-01-14 12:30:00,76.5,66.4,30.30,West,270,6.9,6.9,71,0.00,SCT,,0.00,WeatherDisplay:10.37,2013-01-14 17:30:00,
2013-01-14 12:35:00,76.8,66.3,30.30,WSW,248,9.2,9.2,70,0.00,SCT,,0.00,WeatherDisplay:10.37,2013-01-14 17:35:00,
2013-01-14 12:40:00,77.0,66.0,30.29,WSW,248,6.9,6.9,69,0.00,SCT,,0.00,WeatherDisplay:10.37,2013-01-14 17:40:00,
2013-01-14 12:45:00,77.2,66.2,30.29,WSW,248,6.4,6.4,69,0.00,SCT,,0.00,WeatherDisplay:10.37,2013-01-14 17:45:00,
2013-01-14 12:50:00,77.2,66.2,30.29,SSW,202,6.9,6.9,69,0.00,SCT,,0.00,WeatherDisplay:10.37,2013-01-14 17:50:00,
2013-01-14 12:55:00,77.2,65.8,30.29,SW,225,5.8,5.8,68,0.00,SCT,,0.00,WeatherDisplay:10.37,2013-01-14 17:55:00,
2013-01-14 13:00:00,77.0,65.6,30.29,SW,225,8.1,8.1,68,0.00,SCT,,0.00,WeatherDisplay:10.37,2013-01-14 18:00:00,
2013-01-14 13:05:00,77.0,65.6,30.29,WSW,248,6.9,6.9,68,0.00,FEW,,0.00,WeatherDisplay:10.37,2013-01-14 18:05:00,
2013-01-14 13:10:00,76.8,65.5,30.29,WSW,248,8.1,8.1,68,0.00,FEW,,0.00,WeatherDisplay:10.37,2013-01-14 18:10:00,
2013-01-14 13:15:00,77.0,65.6,30.28,South,180,5.8,6.2,68,0.00,FEW,,0.00,WeatherDisplay:10.37,2013-01-14 18:15:00,
2013-01-14 13:20:00,77.0,65.6,30.28,SW,225,5.8,5.8,68,0.00,FEW,,0.00,WeatherDisplay:10.37,2013-01-14 18:20:00,
2013-01-14 13:25:00,77.0,65.6,30.28,WSW,248,6.9,6.9,68,0.00,FEW,,0.00,WeatherDisplay:10.37,2013-01-14 18:25:00,
2013-01-14 13:30:00,76.6,64.9,30.28,SW,225,5.8,5.8,67,0.00,FEW,,0.00,WeatherDisplay:10.37,2013-01-14 18:30:00,
2013-01-14 13:35:00,76.8,65.0,30.28,SSW,202,5.8,5.8,67,0.00,FEW,,0.00,WeatherDisplay:10.37,2013-01-14 18:35:00,
2013-01-14 13:40:00,76.8,65.0,30.28,SW,225,5.8,5.8,67,0.00,FEW,,0.00,WeatherDisplay:10.37,2013-01-14 18:40:00,
2013-01-14 13:45:00,77.0,65.2,30.27,SSE,158,4.6,4.6,67,0.00,FEW,,0.00,WeatherDisplay:10.37,2013-01-14 18:45:00,
2013-01-14 13:50:00,77.0,65.2,30.27,WSW,248,4.6,4.6,67,0.00,FEW,,0.00,WeatherDisplay:10.37,2013-01-14 18:50:00,
2013-01-14 13:55:00,77.2,64.9,30.28,SW,225,4.6,4.6,66,0.00,FEW,,0.00,WeatherDisplay:10.37,2013-01-14 18:55:00,
2013-01-14 14:00:00,77.5,65.3,30.27,SW,225,4.6,4.6,66,0.00,FEW,,0.00,WeatherDisplay:10.37,2013-01-14 19:00:00,
2013-01-14 14:05:00,77.7,65.5,30.28,SW,225,5.8,6.9,66,0.00,CLR,,0.00,WeatherDisplay:10.37,2013-01-14 19:05:00,
2013-01-14 14:10:00,77.7,65.0,30.28,SSW,202,4.9,4.9,65,0.00,CLR,,0.00,WeatherDisplay:10.37,2013-01-14 19:10:00,
2013-01-14 14:15:00,77.7,64.6,30.28,WSW,248,7.6,7.6,64,0.00,CLR,,0.00,WeatherDisplay:10.37,2013-01-14 19:15:00,
2013-01-14 14:20:00,77.7,64.1,30.28,WNW,292,6.9,6.9,63,0.00,CLR,,0.00,WeatherDisplay:10.37,2013-01-14 19:20:00,
2013-01-14 14:25:00,77.7,64.1,30.28,SSW,202,6.9,6.9,63,0.00,CLR,,0.00,WeatherDisplay:10.37,2013-01-14 19:25:00,
2013-01-14 14:30:00,77.7,64.1,30.29,SW,225,4.6,4.6,63,0.00,CLR,,0.00,WeatherDisplay:10.37,2013-01-14 19:30:00,
2013-01-14 14:35:00,77.7,63.7,30.28,WSW,248,6.9,6.9,62,0.00,CLR,,0.00,WeatherDisplay:10.37,2013-01-14 19:35:00,
2013-01-14 14:40:00,77.7,64.1,30.29,SSW,202,3.5,3.5,63,0.00,CLR,,0.00,WeatherDisplay:10.37,2013-01-14 19:40:00,
2013-01-14 14:45:00,77.7,63.7,30.29,SSE,158,5.8,6.9,62,0.00,CLR,,0.00,WeatherDisplay:10.37,2013-01-14 19:45:00,
2013-01-14 14:50:00,77.5,63.9,30.29,WSW,248,5.8,5.8,63,0.00,CLR,,0.00,WeatherDisplay:10.37,2013-01-14 19:50:00,
2013-01-14 14:55:00,77.4,63.8,30.29,WSW,248,4.0,4.0,63,0.00,CLR,,0.00,WeatherDisplay:10.37,2013-01-14 19:55:00,
2013-01-14 15:00:00,77.4,63.8,30.29,SW,225,6.2,6.2,63,0.00,CLR,,0.00,WeatherDisplay:10.37,2013-01-14 20:00:00,
2013-01-14 15:05:00,77.5,63.9,30.29,SW,225,3.5,3.5,63,0.00,CLR,,0.00,WeatherDisplay:10.37,2013-01-14 20:05:00,
2013-01-14 15:10:00,77.7,63.7,30.29,WSW,248,6.9,6.9,62,0.00,CLR,,0.00,WeatherDisplay:10.37,2013-01-14 20:10:00,
2013-01-14 15:15:00,77.7,63.7,30.29,SW,225,6.9,6.9,62,0.00,CLR,,0.00,WeatherDisplay:10.37,2013-01-14 20:15:00,
2013-01-14 15:20:00,77.7,63.7,30.29,West,270,6.9,6.9,62,0.00,CLR,,0.00,WeatherDisplay:10.37,2013-01-14 20:20:00,
2013-01-14 15:25:00,77.5,63.5,30.29,SSE,158,5.4,5.4,62,0.00,CLR,,0.00,WeatherDisplay:10.37,2013-01-14 20:25:00,
2013-01-14 15:30:00,77.4,63.3,30.29,SSW,202,4.7,4.7,62,0.00,CLR,,0.00,WeatherDisplay:10.37,2013-01-14 20:30:00,
2013-01-14 15:35:00,77.4,63.3,30.29,SSW,202,6.7,6.7,62,0.00,CLR,,0.00,WeatherDisplay:10.37,2013-01-14 20:35:00,
2013-01-14 15:40:00,77.0,63.0,30.29,SSW,202,6.9,6.9,62,0.00,CLR,,0.00,WeatherDisplay:10.37,2013-01-14 20:40:00,
2013-01-14 15:45:00,76.8,62.8,30.29,SW,225,5.8,5.8,62,0.00,CLR,,0.00,WeatherDisplay:10.37,2013-01-14 20:45:00,
2013-01-14 15:50:00,76.8,62.8,30.29,ESE,112,5.8,5.8,62,0.00,CLR,,0.00,WeatherDisplay:10.37,2013-01-14 20:50:00,
2013-01-14 15:55:00,76.6,62.6,30.30,South,180,4.6,4.6,62,0.00,CLR,,0.00,WeatherDisplay:10.37,2013-01-14 20:55:00,
2013-01-14 16:00:00,76.6,62.6,30.30,West,270,5.8,5.8,62,0.00,CLR,,0.00,WeatherDisplay:10.37,2013-01-14 21:00:00,
2013-01-14 16:06:00,76.5,62.9,30.29,SSW,202,4.6,4.6,63,0.00,CLR,,0.00,WeatherDisplay:10.37,2013-01-14 21:06:00,
2013-01-14 16:11:00,76.3,62.8,30.30,South,180,8.1,8.1,63,0.00,CLR,,0.00,WeatherDisplay:10.37,2013-01-14 21:11:00,
2013-01-14 16:16:00,76.1,62.6,30.30,SW,225,6.9,6.9,63,0.00,CLR,,0.00,WeatherDisplay:10.37,2013-01-14 21:16:00,
2013-01-14 16:21:00,75.9,62.4,30.30,SSW,202,3.6,3.6,63,0.00,CLR,,0.00,WeatherDisplay:10.37,2013-01-14 21:21:00,
2013-01-14 16:26:00,75.6,62.5,30.30,South,180,8.1,8.1,64,0.00,CLR,,0.00,WeatherDisplay:10.37,2013-01-14 21:26:00,
2013-01-14 16:31:00,75.2,62.2,30.30,SSW,202,5.8,5.8,64,0.00,CLR,,0.00,WeatherDisplay:10.37,2013-01-14 21:31:00,
2013-01-14 16:36:00,75.0,62.0,30.30,SSE,158,5.8,5.9,64,0.00,CLR,,0.00,WeatherDisplay:10.37,2013-01-14 21:36:00,
2013-01-14 16:41:00,74.8,61.8,30.30,SW,225,3.5,3.5,64,0.00,CLR,,0.00,WeatherDisplay:10.37,2013-01-14 21:41:00,
2013-01-14 16:46:00,74.7,62.1,30.31,ESE,112,2.3,2.3,65,0.00,CLR,,0.00,WeatherDisplay:10.37,2013-01-14 21:46:00,
2013-01-14 16:51:00,74.5,61.9,30.31,SW,225,3.5,3.5,65,0.00,CLR,,0.00,WeatherDisplay:10.37,2013-01-14 21:51:00,
2013-01-14 16:56:00,74.3,62.2,30.31,SSW,202,3.8,3.8,66,0.00,CLR,,0.00,WeatherDisplay:10.37,2013-01-14 21:56:00,
2013-01-14 17:01:00,73.9,61.9,30.31,SSE,158,2.3,2.3,66,0.00,CLR,,0.00,WeatherDisplay:10.37,2013-01-14 22:01:00,
2013-01-14 17:06:00,73.8,61.7,30.31,SSE,158,2.4,2.4,66,0.00,CLR,,0.00,WeatherDisplay:10.37,2013-01-14 22:06:00,
2013-01-14 17:11:00,73.2,61.2,30.31,ESE,112,2.3,2.3,66,0.00,CLR,,0.00,WeatherDisplay:10.37,2013-01-14 22:11:00,
2013-01-14 17:16:00,72.9,61.3,30.31,South,180,2.3,2.3,67,0.00,CLR,,0.00,WeatherDisplay:10.37,2013-01-14 22:16:00,
2013-01-14 17:21:00,72.3,61.2,30.31,SSW,202,2.3,2.3,68,0.00,CLR,,0.00,WeatherDisplay:10.37,2013-01-14 22:21:00,
2013-01-14 17:26:00,71.8,61.1,30.31,SSE,158,2.3,2.3,69,0.00,CLR,,0.00,WeatherDisplay:10.37,2013-01-14 22:26:00,
2013-01-14 17:31:00,71.2,60.1,30.32,ESE,112,2.3,2.3,68,0.00,CLR,,0.00,WeatherDisplay:10.37,2013-01-14 22:31:00,
2013-01-14 17:36:00,71.1,60.8,30.32,SW,225,1.1,1.1,70,0.00,CLR,,0.00,WeatherDisplay:10.37,2013-01-14 22:36:00,
2013-01-14 17:41:00,70.9,60.6,30.32,SSW,202,1.1,1.1,70,0.00,CLR,,0.00,WeatherDisplay:10.37,2013-01-14 22:41:00,
2013-01-14 17:46:00,70.5,60.3,30.32,SSW,202,1.8,1.8,70,0.00,CLR,,0.00,WeatherDisplay:10.37,2013-01-14 22:46:00,
2013-01-14 17:51:00,70.5,60.7,30.32,SSE,158,1.1,1.1,71,0.00,CLR,,0.00,WeatherDisplay:10.37,2013-01-14 22:51:00,
2013-01-14 17:56:00,70.3,60.5,30.32,SSE,158,1.8,1.8,71,0.00,CLR,,0.00,WeatherDisplay:10.37,2013-01-14 22:56:00,
2013-01-14 18:01:00,70.2,60.7,30.32,SW,225,3.3,3.3,72,0.00,CLR,,0.00,WeatherDisplay:10.37,2013-01-14 23:01:00,
2013-01-14 18:06:00,70.2,61.1,30.32,SSE,158,2.4,2.4,73,0.00,CLR,,0.00,WeatherDisplay:10.37,2013-01-14 23:06:00,
2013-01-14 18:11:00,70.2,61.1,30.32,SSW,202,1.6,1.6,73,0.00,CLR,,0.00,WeatherDisplay:10.37,2013-01-14 23:11:00,
2013-01-14 18:16:00,70.2,61.1,30.32,SW,225,1.6,1.6,73,0.00,CLR,,0.00,WeatherDisplay:10.37,2013-01-14 23:16:00,
2013-01-14 18:21:00,70.2,61.1,30.32,South,180,3.5,3.5,73,0.00,CLR,,0.00,WeatherDisplay:10.37,2013-01-14 23:21:00,
2013-01-14 18:26:00,70.2,61.1,30.33,SW,225,2.3,2.3,73,0.00,CLR,,0.00,WeatherDisplay:10.37,2013-01-14 23:26:00,
2013-01-14 18:31:00,70.0,60.9,30.33,SE,135,2.3,2.3,73,0.00,CLR,,0.00,WeatherDisplay:10.37,2013-01-14 23:31:00,
2013-01-14 18:36:00,70.0,61.3,30.33,SSW,202,3.5,3.5,74,0.00,CLR,,0.00,WeatherDisplay:10.37,2013-01-14 23:36:00,
2013-01-14 18:41:00,69.8,61.1,30.33,WSW,248,3.5,3.5,74,0.00,CLR,,0.00,WeatherDisplay:10.37,2013-01-14 23:41:00,
2013-01-14 18:46:00,69.8,61.1,30.33,SSW,202,3.6,3.6,74,0.00,CLR,,0.00,WeatherDisplay:10.37,2013-01-14 23:46:00,
2013-01-14 18:51:00,69.6,61.0,30.32,SSW,202,2.3,2.3,74,0.00,CLR,,0.00,WeatherDisplay:10.37,2013-01-14 23:51:00,
2013-01-14 18:56:00,69.4,60.8,30.33,South,180,2.3,2.3,74,0.00,CLR,,0.00,WeatherDisplay:10.37,2013-01-14 23:56:00,
2013-01-14 19:01:00,69.4,60.8,30.32,SW,225,2.3,2.3,74,0.00,CLR,,0.00,WeatherDisplay:10.37,2013-01-15 00:01:00,
2013-01-14 19:06:00,69.3,60.6,30.32,SSW,202,2.3,2.3,74,0.00,CLR,,0.00,WeatherDisplay:10.37,2013-01-15 00:06:00,
2013-01-14 19:11:00,69.1,60.4,30.32,South,180,4.6,4.6,74,0.00,CLR,,0.00,WeatherDisplay:10.37,2013-01-15 00:11:00,
2013-01-14 19:16:00,68.7,60.1,30.32,SSW,202,2.3,2.3,74,0.00,CLR,,0.00,WeatherDisplay:10.37,2013-01-15 00:16:00,
2013-01-14 19:21:00,68.4,59.7,30.32,SSW,202,2.3,2.3,74,0.00,CLR,,0.00,WeatherDisplay:10.37,2013-01-15 00:21:00,
2013-01-14 19:26:00,68.0,59.4,30.32,South,180,2.3,2.3,74,0.00,CLR,,0.00,WeatherDisplay:10.37,2013-01-15 00:26:00,
2013-01-14 19:31:00,67.8,59.6,30.32,SW,225,1.6,1.6,75,0.00,CLR,,0.00,WeatherDisplay:10.37,2013-01-15 00:31:00,
2013-01-14 19:36:00,67.6,59.4,30.32,SW,225,2.3,2.3,75,0.00,CLR,,0.00,WeatherDisplay:10.37,2013-01-15 00:36:00,
2013-01-14 19:41:00,67.5,59.3,30.32,West,270,2.3,2.3,75,0.00,CLR,,0.00,WeatherDisplay:10.37,2013-01-15 00:41:00,
2013-01-14 19:46:00,67.3,59.5,30.32,SW,225,3.5,3.5,76,0.00,CLR,,0.00,WeatherDisplay:10.37,2013-01-15 00:46:00,
2013-01-14 19:51:00,67.1,59.3,30.32,WSW,248,2.3,2.3,76,0.00,CLR,,0.00,WeatherDisplay:10.37,2013-01-15 00:51:00,
2013-01-14 19:56:00,66.9,59.5,30.32,SE,135,2.3,2.3,77,0.00,CLR,,0.00,WeatherDisplay:10.37,2013-01-15 00:56:00,
2013-01-14 20:01:00,66.7,59.3,30.32,South,180,2.3,2.3,77,0.00,CLR,,0.00,WeatherDisplay:10.37,2013-01-15 01:01:00,
2013-01-14 20:06:00,66.6,59.1,30.32,SSW,202,2.3,2.3,77,0.00,CLR,,0.00,WeatherDisplay:10.37,2013-01-15 01:06:00,
2013-01-14 20:11:00,66.6,59.1,30.32,SSW,202,2.3,2.3,77,0.00,CLR,,0.00,WeatherDisplay:10.37,2013-01-15 01:11:00,
2013-01-14 20:16:00,66.4,58.9,30.32,South,180,2.3,2.6,77,0.00,CLR,,0.00,WeatherDisplay:10.37,2013-01-15 01:16:00,
2013-01-14 20:21:00,66.2,59.1,30.32,SSE,158,3.6,3.6,78,0.00,CLR,,0.00,WeatherDisplay:10.37,2013-01-15 01:21:00,
2013-01-14 20:26:00,66.2,59.1,30.32,SW,225,4.6,4.6,78,0.00,CLR,,0.00,WeatherDisplay:10.37,2013-01-15 01:26:00,
2013-01-14 20:31:00,65.8,58.8,30.32,South,180,2.3,2.3,78,0.00,CLR,,0.00,WeatherDisplay:10.37,2013-01-15 01:31:00,
2013-01-14 20:36:00,65.8,59.1,30.32,ESE,112,3.5,3.5,79,0.00,CLR,,0.00,WeatherDisplay:10.37,2013-01-15 01:36:00,
2013-01-14 20:41:00,65.7,59.0,30.32,SSW,202,3.5,3.5,79,0.00,CLR,,0.00,WeatherDisplay:10.37,2013-01-15 01:41:00,
2013-01-14 20:46:00,65.5,58.8,30.32,SSW,202,2.3,2.3,79,0.00,CLR,,0.00,WeatherDisplay:10.37,2013-01-15 01:46:00,
2013-01-14 20:51:00,65.5,58.8,30.32,WSW,248,2.3,2.3,79,0.00,CLR,,0.00,WeatherDisplay:10.37,2013-01-15 01:51:00,
2013-01-14 20:56:00,65.3,59.0,30.32,SSW,202,2.3,2.3,80,0.00,CLR,,0.00,WeatherDisplay:10.37,2013-01-15 01:56:00,
2013-01-14 21:01:00,65.1,58.8,30.32,SSE,158,1.4,1.4,80,0.00,CLR,,0.00,WeatherDisplay:10.37,2013-01-15 02:01:00,
2013-01-14 21:06:00,65.1,58.8,30.32,SW,225,0.5,0.5,80,0.00,CLR,,0.00,WeatherDisplay:10.37,2013-01-15 02:06:00,
2013-01-14 21:11:00,64.9,58.6,30.32,SSW,202,2.0,2.0,80,0.00,CLR,,0.00,WeatherDisplay:10.37,2013-01-15 02:11:00,
2013-01-14 21:16:00,64.9,58.6,30.32,SW,225,2.3,2.3,80,0.00,CLR,,0.00,WeatherDisplay:10.37,2013-01-15 02:16:00,
2013-01-14 21:21:00,65.1,59.1,30.32,North,0,2.3,2.3,81,0.00,CLR,,0.00,WeatherDisplay:10.37,2013-01-15 02:21:00,
2013-01-14 21:26:00,65.1,59.1,30.32,SSW,202,3.5,3.5,81,0.00,CLR,,0.00,WeatherDisplay:10.37,2013-01-15 02:26:00,
2013-01-14 21:31:00,65.1,59.1,30.32,WSW,248,3.5,3.5,81,0.00,CLR,,0.00,WeatherDisplay:10.37,2013-01-15 02:31:00,
2013-01-14 21:36:00,65.3,59.3,30.32,SSE,158,2.3,2.3,81,0.00,CLR,,0.00,WeatherDisplay:10.37,2013-01-15 02:36:00,
2013-01-14 21:41:00,65.3,59.3,30.32,SSE,158,3.5,3.5,81,0.00,CLR,,0.00,WeatherDisplay:10.37,2013-01-15 02:41:00,
2013-01-14 21:46:00,65.3,59.3,30.32,SW,225,3.5,3.5,81,0.00,CLR,,0.00,WeatherDisplay:10.37,2013-01-15 02:46:00,
2013-01-14 21:51:00,65.1,59.1,30.32,SSW,202,4.7,4.7,81,0.00,CLR,,0.00,WeatherDisplay:10.37,2013-01-15 02:51:00,
2013-01-14 21:56:00,65.1,59.1,30.32,South,180,2.3,2.3,81,0.00,CLR,,0.00,WeatherDisplay:10.37,2013-01-15 02:56:00,
2013-01-14 22:01:00,65.1,59.1,30.32,South,180,2.9,2.9,81,0.00,CLR,,0.00,WeatherDisplay:10.37,2013-01-15 03:01:00,
2013-01-14 22:06:00,65.3,59.3,30.32,SW,225,4.6,4.6,81,0.00,CLR,,0.00,WeatherDisplay:10.37,2013-01-15 03:06:00,
2013-01-14 22:11:00,65.3,59.3,30.32,SSE,158,3.5,3.5,81,0.00,CLR,,0.00,WeatherDisplay:10.37,2013-01-15 03:11:00,
2013-01-14 22:16:00,65.3,59.3,30.32,SE,135,2.3,2.3,81,0.00,CLR,,0.00,WeatherDisplay:10.37,2013-01-15 03:16:00,
2013-01-14 22:21:00,65.1,59.1,30.31,SSE,158,2.3,2.3,81,0.00,CLR,,0.00,WeatherDisplay:10.37,2013-01-15 03:21:00,
2013-01-14 22:26:00,64.9,59.0,30.32,SW,225,2.3,2.3,81,0.00,CLR,,0.00,WeatherDisplay:10.37,2013-01-15 03:26:00,
2013-01-14 22:31:00,64.8,58.8,30.32,SW,225,2.3,2.3,81,0.00,CLR,,0.00,WeatherDisplay:10.37,2013-01-15 03:31:00,
2013-01-14 22:36:00,64.8,58.8,30.32,SW,225,1.6,1.6,81,0.00,CLR,,0.00,WeatherDisplay:10.37,2013-01-15 03:36:00,
2013-01-14 22:41:00,64.6,59.0,30.32,SSW,202,3.5,3.5,82,0.00,CLR,,0.00,WeatherDisplay:10.37,2013-01-15 03:41:00,
2013-01-14 22:46:00,64.6,59.0,30.32,SW,225,3.5,3.5,82,0.00,CLR,,0.00,WeatherDisplay:10.37,2013-01-15 03:46:00,
2013-01-14 22:51:00,64.4,58.8,30.32,SW,225,5.8,5.8,82,0.00,CLR,,0.00,WeatherDisplay:10.37,2013-01-15 03:51:00,
2013-01-14 22:56:00,64.2,58.6,30.32,SSW,202,5.8,5.8,82,0.00,CLR,,0.00,WeatherDisplay:10.37,2013-01-15 03:56:00,
2013-01-14 23:01:00,64.2,58.6,30.31,SSE,158,5.4,5.4,82,0.00,CLR,,0.00,WeatherDisplay:10.37,2013-01-15 04:01:00,
2013-01-14 23:06:00,64.0,58.4,30.31,SSW,202,3.5,3.5,82,0.00,CLR,,0.00,WeatherDisplay:10.37,2013-01-15 04:06:00,
2013-01-14 23:11:00,64.0,58.4,30.31,West,270,3.5,3.5,82,0.00,CLR,,0.00,WeatherDisplay:10.37,2013-01-15 04:11:00,
2013-01-14 23:16:00,64.0,58.4,30.31,South,180,2.3,2.3,82,0.00,CLR,,0.00,WeatherDisplay:10.37,2013-01-15 04:16:00,
2013-01-14 23:21:00,64.0,58.4,30.31,SSW,202,4.6,4.6,82,0.00,CLR,,0.00,WeatherDisplay:10.37,2013-01-15 04:21:00,
2013-01-14 23:26:00,64.0,58.4,30.31,SW,225,3.5,3.5,82,0.00,CLR,,0.00,WeatherDisplay:10.37,2013-01-15 04:26:00,
2013-01-14 23:31:00,64.0,58.8,30.31,SW,225,2.6,2.6,83,0.00,CLR,,0.00,WeatherDisplay:10.37,2013-01-15 04:31:00,
2013-01-14 23:36:00,64.0,58.8,30.32,SW,225,2.3,2.3,83,0.00,CLR,,0.00,WeatherDisplay:10.37,2013-01-15 04:36:00,
2013-01-14 23:41:00,64.0,58.8,30.32,South,180,3.5,3.5,83,0.00,CLR,,0.00,WeatherDisplay:10.37,2013-01-15 04:41:00,
2013-01-14 23:46:00,64.0,58.8,30.32,SSW,202,2.3,2.3,83,0.00,CLR,,0.00,WeatherDisplay:10.37,2013-01-15 04:46:00,
2013-01-14 23:51:00,64.0,58.8,30.32,SSE,158,2.3,2.3,83,0.00,CLR,,0.00,WeatherDisplay:10.37,2013-01-15 04:51:00,
2013-01-14 23:56:00,64.0,58.8,30.32,South,180,2.6,2.6,83,0.00,CLR,,0.00,WeatherDisplay:10.37,2013-01-15 04:56:00,